Regional Weather Roundup
Issued by NWS

Home | Current Version | Previous Version | Text Only | Print | Product List | Glossary On
Versions: 1 2 3 4 5 6 7 8 9 10 11 12 13 14 15 16 17 18 19 20 21 22 23 24 25 26 27 28 29 30 31 32 33 34 35 36 37 38 39 40 41 42 43 44 45 46 47 48 49 50
000
ASHW40 PHFO 252210
RWRHI

WEATHER ROUNDUP FOR HAWAII
NATIONAL WEATHER SERVICE HONOLULU HI
1200 PM HST SAT APR 25 2015

THIS IS AN AUTOMATED REPORT THAT HAS NOT BEEN QUALITY CONTROLLED.

NOTE..."FAIR" INDICATES FEW OR NO CLOUDS BELOW 12,000 FEET WITH NO
SIGNIFICANT WEATHER AND/OR OBSTRUCTIONS TO VISIBILITY.

* - THESE SITES REPORT LIMITED FIELDS

HIZ001>004-252300-
KAUAI-NIIHAU-

CITY           SKY/WX    TMP DP  RH WIND       PRES   REMARKS
LIHUE APT      CLOUDY    81  69  67 S15G25    29.97F
PORT ALLEN*      N/A     82 N/A N/A S13         N/A
POIPU*           N/A     81 N/A N/A S10G16      N/A
PRINCEVILLE*     N/A     81 N/A N/A MISG        N/A
KOKOLE POINT*  NOT AVBL
MOLOAA DAIRY*  NOT AVBL
WAIMEA HTS*    NOT AVBL
PUU OPAE*      NOT AVBL
PUU LUA*       NOT AVBL
MAKAHA RIDGE*  NOT AVBL
$$

HIZ005>011-252300-
OAHU-

CITY           SKY/WX    TMP DP  RH WIND       PRES   REMARKS
HONOLULU       PTSUNNY   78  70  76 S12       29.99F
KALAELOA       MOSUNNY   83  70  64 S12       30.00F
KANEOHE MCB    MOSUNNY   85  64  49 SW13G22   29.95S
WHEELER FIELD  NOT AVBL
BELLOWS*       NOT AVBL
KAHUKU*        NOT AVBL
WHEELER*       NOT AVBL
WAIANAE HARBOR NOT AVBL
DILLINGHAM*      N/A     88  63  42 MISG        N/A
KAHUKU TRN*      N/A     68  46  45 SW8G26      N/A
KAWAILOA*        N/A     81  66  61 S7G22       N/A
KII*             N/A     82  68  61 CALM        N/A
MAKUA RANGE*     N/A     82  66  57 S9G24       N/A
OAHU FOREST NW NOT AVBL
SCHOFIELD BRK*   N/A     68  55  64 MISG        N/A
SCHOFIELD S*   NOT AVBL
WAIANAE VLY*   NOT AVBL
KUAOKALA*      NOT AVBL
HONOULIUULI*   NOT AVBL
MOKUOLOE IS*   NOT AVBL
PALEHUA*       NOT AVBL
WAIAWA PHB*    NOT AVBL
$$

HIZ012>013-252300-
MOLOKAI-

CITY           SKY/WX    TMP DP  RH WIND       PRES   REMARKS
MOLOKAI AIRPT  PTSUNNY   81  66  60 S8        30.00F
KALAUPAPA      NOT AVBL
MAKAPULAPAI*   NOT AVBL
MOLOKAI 1*     NOT AVBL
PUU ALII*      NOT AVBL
$$

HIZ016-252300-
KAHOOLAWE-

CITY           SKY/WX    TMP DP  RH WIND       PRES   REMARKS
KAHOOLAWE*     NOT AVBL
HAKIOAWA*      NOT AVBL
HONOKANAIA*      N/A     84  68  58 E10G17    30.01F
KANELOA*         N/A     79  68  69 MISG      29.23F
KEALIALALO*    NOT AVBL
LUA MAKIKA*    NOT AVBL
$$

HIZ014>015-252300-
LANAI-

CITY           SKY/WX    TMP DP  RH WIND       PRES   REMARKS
LANAI CITY     CLOUDY    74  66  76 VRB7      30.04F
LANAI 1*       NOT AVBL
$$

HIZ017>028-252300-
MAUI-

CITY           SKY/WX    TMP DP  RH WIND       PRES   REMARKS
KAHULUI        MOSUNNY   84  65  52 NE10      29.99F
KAPALUA-W MAUI PTSUNNY   84  66  54 N8        29.98
HANA AIRPORT   PTSUNNY   81  68  65 SE3G16    30.02S
HANA*          NOT AVBL
HALEAKALA SUMM   N/A     63  30  29 NW5G20      N/A
MAALAEA BAY*   NOT AVBL
HALEAKALA*     NOT AVBL
KAUPO GAP*     NOT AVBL
KULA 1*          N/A     55  55  99 NW5         N/A
$$

HIZ023>026-252300-
BIG ISLAND OF HAWAII COAST AND LOWER SLOPES-

CITY           SKY/WX    TMP DP  RH WIND       PRES   REMARKS
KAILUA KONA    MOSUNNY   83  69  62 W10       29.98F
HILO           LGT RAIN  75  71  87 SE14      30.01F FOG
HONOKAA*       NOT AVBL
KAWAIHAE MWT*  NOT AVBL
KAWAIHAE*        N/A     79 N/A N/A W9          N/A
SOUTH POINT*   NOT AVBL
UPOLU AIRPORT* NOT AVBL
KAMUELA*       PTCLDY    79  57  47 W10       30.09S
HAKALAU*         N/A     63  53  71 S8G17       N/A
KALOKO-HONOKO* NOT AVBL
PALI 2*          N/A     66  64  94 SE12        N/A
KEALAKOMO*       N/A     81  66  61 E13G20      N/A
KAUPULEHU*     NOT AVBL
KAPAPALA*        N/A     78  63  58 E7G15       N/A
LOWER KAHUKU*  NOT AVBL
PUHE CS*       NOT AVBL
PUHO CS*       NOT AVBL
PTA KEAMUKU*     N/A     73  55  53 CALM        N/A
WAIKOLOA*      NOT AVBL
$$

HIZ027>028-252300-
BIG ISLAND OF HAWAII INTERIOR AND SUMMMITS-

CITY           SKY/WX    TMP DP  RH WIND       PRES   REMARKS
BRADSHAW FIELD SUNNY     68  52  56 W10G18    30.30F
MK VISITOR CEN NOT AVBL
MAUNA KEA*       N/A     50  18  27 N14         N/A
MAUNA LOA*       N/A     55  34  44 MISG        N/A
MAUNA LOA 1*   NOT AVBL
PTA KIPUKA*      N/A     72  52  49 NW6G15      N/A
PTA RANGE 17*    N/A    N/A N/A N/A NW12G18     N/A
PTA WEST*        N/A     72  54  53 W12G20      N/A
NENE CABIN*    NOT AVBL
AHUMOA*        NOT AVBL
PTA PORTABLE*  NOT AVBL
PUU MALI*        N/A     57  52  82 NE8G14      N/A
$$

HIC003-252300-
NORTHWEST ISLANDS-

CITY           SKY/WX    TMP DP  RH WIND       PRES   REMARKS
MIDWAY ISLAND  PTSUNNY   66  52  59 E17G24    30.30R
MIDWAY NOS*    NOT AVBL
FRENCH FRIGATE NOT AVBL
$$

PHZ110>124-180-252300-
BUOY REPORTS

STATION/POSITION TIME  TEMP    WIND        PRES    WAVE   SWELL
                       AIR SEA DIR/SP/G            HT/PER HT/DIR
                 (UTC) (F)     (DEG/KT/KT) (MB)    (FT/S) (FT/D)
BUOY 51001       NOT AVBL
BUOY 51101       2200   72 75  260/ 12/ 16 1013.6R   7/ 9   5/ 70
BUOY 51100       2200   72     280/ 16     1013.1R
BUOY 51002       2200   78 79  100/ 12/ 16 1014.8F   7/ 9   7/ 90
BUOY 51003       2100   78 79  170/ 12/ 16 1015.1R   8/ 9   7
BUOY 51004       2108   77 77  100/ 16/ 19 1015.3F   8/ 9   5/ 90
BARBERS PT BUOY  NOT AVBL
WAIMEA BAY BUOY  2200      79                N/A     5/10   2/310
KAILUA BAY BUOY  2200      77                N/A     6/ 9   2/ 80
LANAI BUOY       2100      79                N/A     4/ 8   2/190
BARBERS PT 2     2200      78                N/A     7/ 8   3/190
PAUWELA MAUI     2200      77                N/A     6/ 9   2/ 20
HILO             2200      77                N/A     9/ 9   2/110
KANEOHE BAY BUOY 2200      76                N/A     5/ 8   2/ 60
HANALEI KAUAI    2200      79                N/A     7/ 8   2/310
KAHULUI HARBOR   2200   78 78   30/  8/ 10 1015.2F
HONOLULU HARBOR  2200   79 80  220/  8/ 10 1015.7F
KILO NALU        NOT AVBL
HILO HARBOR      2200   83 76  140/ 13/ 17 1016.0F
MOKUOLOE         2200   84 79  180/  6/ 15 1015.0S
NAWILIWILI       2200   78 78  150/  8/ 17 1014.3F
WHOTS BUOY       NOT AVBL
BUOY 51028       NOT AVBL
$$

......................KEY........................................
  SKY/WX - SKY CONDITIONS/PRESENT WEATHER
  TMP    - TEMPERATURE IN FAHRENHEIT
  DWPT   - DEWPOINT IN FAHRENHEIT
  RH     - RELATIVE HUMIDITY IN PERCENT
  WIND   - DIRECTION AND SPEED /MPH FOR ISLANDS...KTS FOR BUOYS/
  PRES   - MEAN SEA LEVEL PRESSURE IN INCHES OF HG
  VSB    - VISIBILITY IN MILES
  HX     - HEAT INDEX
  WCI    - WIND CHILL INDEX
  VRB    - VARIABLE WIND DIRECTION
  N/A    - NOT AVAILABLE


USA.gov is the U.S. government's official web portal to all federal, state and local government web resources and services.